Total_Precipitation_Accumulation
0.14 0.16 0.22 0.43 0.48 0.39 0.39 0.39 0.46 0.42 0.45 0.54 0.60 0.63 0.65 0.66 0.58 0.48 0.42 0.38 0.32 0.31 0.33 0.34 0.39 0.46 0.56 0.85 1.06 1.08 1.08 0.95 0.84 0.75 0.68 0.64 0.63 0.63 0.57 0.52 0.51 0.51 0.58 0.67
0.12 0.12 0.14 0.17 0.13 0.12 0.15 0.20 0.28 0.32 0.42 0.46 0.49 0.50 0.55 0.56 0.41 0.36 0.32 0.31 0.30 0.28 0.25 0.22 0.22 0.28 0.37 0.56 0.74 0.83 0.89 0.86 0.73 0.70 0.62 0.54 0.57 0.65 0.64 0.51 0.46 0.47 0.51 0.48
0.15 0.11 0.14 0.13 0.08 0.13 0.16 0.18 0.22 0.33 0.45 0.50 0.52 0.58 0.88 0.91 0.59 0.41 0.37 0.33 0.35 0.34 0.30 0.27 0.24 0.25 0.27 0.33 0.43 0.52 0.57 0.59 0.50 0.50 0.59 0.61 0.62 0.61 0.54 0.44 0.44 0.44 0.39 0.34
0.20 0.17 0.21 0.13 0.07 0.13 0.16 0.16 0.16 0.18 0.21 0.27 0.39 0.52 0.69 0.78 0.63 0.45 0.42 0.36 0.33 0.30 0.27 0.25 0.22 0.22 0.24 0.24 0.27 0.30 0.30 0.28 0.25 0.33 0.47 0.49 0.45 0.42 0.36 0.36 0.41 0.46 0.39 0.36
0.23 0.31 0.25 0.09 0.06 0.08 0.10 0.09 0.07 0.08 0.09 0.11 0.15 0.16 0.18 0.23 0.26 0.24 0.20 0.16 0.14 0.12 0.12 0.11 0.11 0.12 0.12 0.09 0.11 0.12 0.11 0.11 0.14 0.15 0.18 0.19 0.17 0.18 0.24 0.30 0.35 0.32 0.35 0.49
0.24 0.29 0.23 0.10 0.05 0.05 0.09 0.13 0.06 0.04 0.04 0.04 0.08 0.12 0.11 0.16 0.11 0.06 0.05 0.04 0.06 0.08 0.09 0.08 0.08 0.09 0.07 0.07 0.08 0.08 0.10 0.10 0.11 0.12 0.13 0.13 0.13 0.14 0.17 0.20 0.26 0.28 0.31 0.43
0.20 0.27 0.16 0.06 0.05 0.06 0.13 0.13 0.05 0.03 0.03 0.02 0.03 0.05 0.05 0.11 0.09 0.02 0.04 0.05 0.06 0.07 0.08 0.08 0.08 0.08 0.07 0.07 0.08 0.12 0.13 0.12 0.10 0.11 0.13 0.18 0.22 0.20 0.19 0.18 0.19 0.22 0.26 0.30
0.15 0.20 0.16 0.06 0.05 0.09 0.09 0.05 0.04 0.05 0.04 0.03 0.03 0.04 0.04 0.07 0.08 0.04 0.04 0.06 0.07 0.08 0.07 0.08 0.09 0.09 0.09 0.08 0.10 0.13 0.13 0.12 0.12 0.13 0.15 0.17 0.25 0.26 0.23 0.23 0.20 0.20 0.25 0.32
0.15 0.13 0.09 0.06 0.06 0.07 0.07 0.05 0.04 0.05 0.05 0.03 0.03 0.03 0.03 0.05 0.10 0.06 0.05 0.05 0.07 0.09 0.10 0.10 0.10 0.11 0.11 0.11 0.13 0.14 0.13 0.13 0.14 0.15 0.17 0.18 0.20 0.23 0.25 0.24 0.25 0.26 0.27 0.30
0.13 0.09 0.06 0.07 0.08 0.07 0.05 0.04 0.04 0.05 0.06 0.05 0.05 0.05 0.05 0.06 0.09 0.09 0.07 0.05 0.05 0.06 0.09 0.13 0.15 0.15 0.17 0.18 0.19 0.18 0.17 0.16 0.16 0.17 0.20 0.22 0.25 0.26 0.28 0.30 0.30 0.30 0.31 0.33
0.12 0.09 0.07 0.08 0.09 0.10 0.07 0.05 0.05 0.05 0.07 0.07 0.08 0.08 0.07 0.06 0.07 0.07 0.10 0.09 0.06 0.06 0.07 0.10 0.14 0.16 0.19 0.20 0.21 0.22 0.22 0.22 0.21 0.21 0.22 0.26 0.29 0.32 0.30 0.31 0.33 0.32 0.33 0.36
0.11 0.08 0.08 0.08 0.08 0.10 0.11 0.09 0.06 0.05 0.05 0.07 0.08 0.08 0.07 0.07 0.07 0.07 0.07 0.08 0.07 0.08 0.07 0.08 0.09 0.10 0.13 0.15 0.17 0.19 0.24 0.24 0.22 0.25 0.29 0.29 0.29 0.28 0.29 0.30 0.33 0.32 0.31 0.34
0.07 0.06 0.06 0.06 0.07 0.08 0.11 0.10 0.07 0.05 0.06 0.06 0.08 0.09 0.09 0.09 0.09 0.08 0.08 0.06 0.06 0.08 0.08 0.08 0.07 0.08 0.09 0.11 0.16 0.19 0.20 0.21 0.21 0.23 0.24 0.27 0.28 0.27 0.29 0.30 0.31 0.31 0.30 0.31
0.05 0.05 0.06 0.06 0.07 0.07 0.09 0.09 0.07 0.07 0.07 0.08 0.09 0.11 0.13 0.13 0.12 0.10 0.10 0.07 0.06 0.06 0.07 0.07 0.08 0.08 0.09 0.11 0.14 0.18 0.21 0.27 0.25 0.22 0.23 0.23 0.23 0.25 0.28 0.31 0.33 0.32 0.31 0.30
0.05 0.04 0.06 0.06 0.06 0.06 0.06 0.08 0.08 0.08 0.09 0.09 0.10 0.12 0.15 0.14 0.13 0.13 0.13 0.11 0.08 0.07 0.07 0.07 0.09 0.11 0.11 0.10 0.12 0.14 0.18 0.24 0.28 0.27 0.26 0.27 0.27 0.23 0.24 0.27 0.29 0.30 0.31 0.29
0.07 0.05 0.04 0.04 0.04 0.05 0.06 0.08 0.10 0.11 0.10 0.11 0.11 0.13 0.15 0.14 0.13 0.13 0.14 0.13 0.11 0.11 0.10 0.09 0.10 0.12 0.15 0.14 0.14 0.15 0.16 0.21 0.26 0.29 0.30 0.28 0.29 0.27 0.24 0.22 0.22 0.24 0.25 0.28
0.12 0.09 0.07 0.07 0.06 0.05 0.05 0.06 0.09 0.11 0.11 0.10 0.12 0.13 0.14 0.13 0.12 0.11 0.13 0.13 0.12 0.11 0.13 0.12 0.12 0.14 0.16 0.16 0.15 0.14 0.16 0.19 0.24 0.29 0.29 0.28 0.28 0.28 0.26 0.25 0.24 0.25 0.25 0.29
0.12 0.12 0.10 0.10 0.08 0.06 0.05 0.04 0.06 0.09 0.10 0.10 0.10 0.11 0.12 0.12 0.12 0.11 0.12 0.12 0.13 0.11 0.12 0.13 0.13 0.14 0.15 0.15 0.14 0.15 0.17 0.19 0.22 0.25 0.29 0.30 0.28 0.27 0.27 0.25 0.25 0.26 0.27 0.28
0.10 0.10 0.09 0.08 0.08 0.07 0.06 0.06 0.06 0.06 0.07 0.08 0.08 0.07 0.08 0.11 0.11 0.10 0.10 0.10 0.10 0.10 0.10 0.11 0.15 0.15 0.15 0.16 0.17 0.18 0.21 0.23 0.25 0.27 0.28 0.31 0.30 0.28 0.29 0.30 0.31 0.31 0.31 0.30
0.08 0.07 0.07 0.07 0.08 0.08 0.08 0.07 0.06 0.07 0.07 0.07 0.07 0.07 0.07 0.09 0.10 0.10 0.10 0.09 0.09 0.10 0.09 0.09 0.10 0.11 0.11 0.13 0.18 0.21 0.24 0.26 0.26 0.26 0.27 0.28 0.28 0.29 0.30 0.31 0.33 0.34 0.33 0.32
0.09 0.08 0.07 0.07 0.07 0.08 0.09 0.09 0.06 0.06 0.06 0.06 0.07 0.07 0.07 0.08 0.12 0.14 0.13 0.12 0.11 0.11 0.10 0.11 0.10 0.10 0.12 0.14 0.16 0.16 0.21 0.24 0.25 0.25 0.26 0.29 0.30 0.31 0.33 0.35 0.36 0.37 0.39 0.39
0.10 0.10 0.09 0.08 0.07 0.07 0.06 0.07 0.07 0.06 0.05 0.05 0.07 0.07 0.08 0.08 0.10 0.12 0.14 0.17 0.16 0.16 0.13 0.11 0.11 0.13 0.16 0.19 0.17 0.16 0.18 0.23 0.28 0.28 0.29 0.31 0.33 0.33 0.35 0.38 0.38 0.38 0.39 0.41
0.11 0.11 0.11 0.09 0.09 0.08 0.06 0.05 0.05 0.05 0.05 0.05 0.06 0.07 0.09 0.10 0.11 0.14 0.17 0.19 0.19 0.20 0.18 0.18 0.21 0.22 0.23 0.20 0.19 0.18 0.20 0.23 0.27 0.28 0.29 0.32 0.35 0.36 0.36 0.37 0.40 0.41 0.41 0.41
0.12 0.12 0.13 0.13 0.13 0.12 0.09 0.08 0.07 0.06 0.06 0.06 0.07 0.08 0.09 0.12 0.14 0.17 0.20 0.24 0.25 0.24 0.21 0.22 0.25 0.28 0.29 0.25 0.22 0.21 0.23 0.26 0.30 0.31 0.31 0.32 0.33 0.34 0.37 0.40 0.44 0.47 0.49 0.51
0.13 0.15 0.18 0.18 0.19 0.19 0.16 0.13 0.11 0.10 0.09 0.09 0.09 0.10 0.11 0.12 0.15 0.19 0.21 0.24 0.26 0.26 0.22 0.23 0.26 0.28 0.25 0.24 0.24 0.23 0.23 0.25 0.29 0.31 0.32 0.34 0.35 0.37 0.38 0.40 0.45 0.50 0.54 0.56
0.13 0.15 0.19 0.20 0.19 0.18 0.17 0.16 0.15 0.13 0.12 0.11 0.11 0.11 0.11 0.10 0.11 0.14 0.17 0.21 0.25 0.28 0.25 0.23 0.23 0.24 0.24 0.24 0.24 0.25 0.24 0.25 0.26 0.27 0.29 0.33 0.34 0.35 0.38 0.40 0.42 0.47 0.53 0.55
0.18 0.17 0.18 0.22 0.22 0.20 0.18 0.18 0.19 0.18 0.17 0.16 0.15 0.14 0.14 0.14 0.13 0.14 0.15 0.18 0.21 0.25 0.28 0.28 0.27 0.26 0.27 0.26 0.26 0.27 0.28 0.29 0.31 0.33 0.34 0.36 0.37 0.39 0.40 0.42 0.44 0.48 0.51 0.52